[[{"header":{"parameterUnit":"m.s-1","parameterCategory":1,"la1":30.2991,"la2":30.254,"lo1":-89.0895,"lo2":-89.0444,"dy":0.0017,"dx":0.0017,"nx":28,"ny":28,"refTime":"2024-07-09T09:00:00:Z","depth":0,"parameterNumber":2,"parameterNumberName":"U-component_of_WINDS"},"data":[0,0,0,0,0,0,0,0,0,0,0,0,0,0,0,0,0,0,0,0,0,0,0,0,0,0,0,0,0,0,0,0,0,0,0,0,0,0,0,0,0,0,0,0,0,0,0,0,0,0,0,0,0,0,0,0,0,0,4.3394,4.3395,0,4.3543,4.3545,4.3547,4.3552,4.355,4.3548,4.3546,4.3703,4.3708,4.3714,0,0,0,0,0,0,0,0,0,0,0,0,0,4.3115,4.312,4.3394,4.3395,4.3397,4.3543,4.3545,4.3547,4.3552,4.355,4.3548,4.3546,4.3701,4.3708,4.3715,0,0,0,0,0,0,0,0,0,0,0,0,0,4.3248,4.3122,4.3393,4.3417,4.3421,4.3543,4.3545,4.3548,4.3553,4.355,4.3547,4.3545,4.3698,4.3707,4.3716,4.3824,0,0,4.3742,4.3746,0,0,0,0,0,0,0,0,4.324,4.3258,4.3412,4.3416,4.342,4.3526,4.3504,4.3641,4.3553,4.3503,4.3546,4.3543,4.3646,4.3659,4.3693,4.3831,4.3838,4.3743,4.3748,4.3752,4.3755,0,0,0,0,0,0,0,4.3231,4.3251,4.3453,4.3414,4.3419,4.3422,4.3437,4.353,4.3588,4.3507,4.3508,4.3525,4.3648,4.3685,4.3697,4.384,4.3743,4.3751,4.3756,4.3759,4.4076,4.4079,0,0,0,0,0,0,4.3217,4.3244,4.3448,4.3457,4.3321,4.3429,4.3447,4.3495,4.3587,4.3598,4.3527,4.3525,4.3671,4.3687,4.3702,4.3835,4.3752,4.376,4.3765,4.4073,4.4077,4.408,0,0,0,0,0,0,4.3211,4.3235,4.3442,4.3351,4.3377,4.3437,4.3491,4.3499,4.3536,4.3602,4.3613,4.3554,4.367,4.369,4.3794,4.3841,4.3764,4.3772,4.4069,4.4074,4.4078,4.4102,0,0,0,0,0,0,4.3203,4.3233,4.3273,4.3352,4.3382,4.353,4.3494,4.3504,4.3551,4.3549,4.363,4.3641,4.3669,4.3781,4.3802,4.3851,4.3779,4.4065,4.4071,4.4077,4.4097,4.4107,4.4115,0,0,0,0,0,4.3193,4.3275,4.3276,4.33,4.3435,4.3532,4.355,4.358,4.3554,4.3597,4.364,4.3639,4.3833,4.3791,4.3816,4.3868,4.4062,4.4069,4.4076,4.4093,4.4105,4.4115,0,0,0,0,0,0,4.3201,4.3285,4.3287,4.3397,4.3457,4.3533,4.3587,4.3591,4.3661,4.3656,4.3691,4.371,4.3812,4.3851,4.3803,4.3978,4.3945,4.3957,4.3949,4.3961,4.3969,4.3957,4.3786,0,0,0,0,0,4.3216,4.3287,4.3358,4.3448,4.3478,4.3527,4.3571,4.3589,4.3653,4.3679,4.3729,4.3793,4.3868,4.3917,4.399,4.4104,4.4121,4.4152,4.4161,4.4168,4.4178,4.4241,4.4255,4.4103,4.4103,4.4103,0,0,4.3247,4.3302,4.3345,4.3451,4.35,4.3574,4.3549,4.3628,4.3684,4.3691,4.3791,4.3831,4.3905,4.4013,4.4064,4.4049,4.4224,4.4177,4.4182,4.4188,4.4249,4.4264,4.4276,4.4108,4.4107,4.4106,0,0,4.334,4.3389,4.3469,4.3519,4.3593,4.3626,4.3645,4.3721,4.3747,4.3848,4.3856,4.3923,4.4052,4.4104,4.4147,4.4262,4.4264,4.4285,4.4331,4.4392,4.4404,4.4415,4.4455,4.4469,4.4295,4.4295,4.4295,0,4.3369,4.348,4.351,4.359,4.3636,4.3647,4.3728,4.3776,4.387,4.3903,4.3884,4.4047,4.4097,4.4218,4.4246,4.4281,4.4304,4.4275,4.44,4.4411,4.4422,4.446,4.4476,4.4297,4.4297,4.4297,4.4296,0,4.3512,4.3589,4.3645,4.3735,4.3789,4.3869,4.3912,4.3963,4.3977,4.4011,4.4115,4.4176,4.4261,4.4291,4.4306,4.4415,4.4403,4.4392,4.4359,4.4437,4.4475,4.449,4.43,4.4299,4.4299,4.4298,0,0,4.3613,4.372,4.374,4.3781,4.3864,4.3925,4.4007,4.4089,4.4132,4.4198,4.4267,4.4376,4.4367,4.4416,4.4437,4.449,4.4577,4.4473,4.4475,4.4489,4.4701,4.4707,4.4724,4.4579,4.4582,4.4585,4.4694,0,4.3715,4.3858,4.3889,4.4013,4.4085,4.4096,4.4168,4.4227,4.4262,4.4329,4.4369,4.4445,4.4427,4.4457,4.4511,4.4555,4.462,4.4548,4.4644,4.4647,4.4623,4.4743,4.4751,4.4851,4.4709,4.4711,4.4713,0,4.3853,4.392,4.4051,4.4126,4.4157,4.422,4.4298,4.4362,4.443,4.4453,4.4508,4.4523,4.4609,4.4573,4.4693,4.4643,4.4685,4.4713,4.4717,4.4726,4.4684,4.4754,4.4883,4.4898,4.4737,4.4735,4.4733,0,4.3912,4.4037,4.4131,4.4166,4.4255,4.4299,4.4339,4.4404,4.4452,4.4522,4.4553,4.4632,4.4675,4.4737,4.4773,4.4744,4.489,4.4857,4.4911,4.491,4.494,4.4937,4.5076,4.4969,4.4969,4.4969,4.4969,0,4.4021,4.4101,4.4159,4.4216,4.4306,4.4341,4.443,4.4469,4.4528,4.4594,4.4611,4.4673,4.4718,4.4788,4.4817,4.4912,4.4931,4.4952,4.4959,4.495,4.4947,4.4976,4.497,4.4973,4.4972,4.4971,4.4971,0,4.4102,4.4144,4.4247,4.4323,4.4345,4.4407,4.4473,4.453,4.4567,4.4651,4.4673,4.473,4.4812,4.4855,4.4959,4.4979,4.5084,4.5088,4.506,4.5063,4.5114,4.5108,4.5276,4.5299,4.5178,4.5179,4.518,0,4.4168,4.4229,4.4312,4.4357,4.4397,4.447,4.4519,4.4557,4.4607,4.469,4.4738,4.4821,4.4889,4.502,4.5072,4.5151,4.5156,4.5209,4.5168,4.5157,4.5155,4.515,4.5157,4.5216,4.5217,4.5218,4.5218,0,4.4281,4.4299,4.4368,4.4445,4.4503,4.4565,4.4627,4.4664,4.4712,4.4768,4.4852,4.4905,4.501,4.5093,4.5176,4.5218,4.5227,4.5231,4.5248,4.5238,4.522,4.5229,4.5079,4.5227,4.5226,4.5225,4.5225,4.5225,4.4355,4.441,4.4477,4.4554,4.4605,4.4662,4.472,4.4763,4.4833,4.4921,4.494,4.5028,4.5097,4.5209,4.5254,4.5325,4.5314,4.5338,4.5344,4.5349,4.535,4.521,4.534,4.534,4.534,4.534,4.534,0,4.4468,4.4511,4.4582,4.4668,4.4729,4.4731,4.48,4.4851,4.4929,4.4991,4.5058,4.5155,4.5235,4.5293,4.5375,4.5421,4.5427,4.5441,4.5437,4.5447,4.5356,4.5333,4.5435,4.5435,4.5435,4.5435,4.5434,4.5434,4.4533,4.4626,4.4652,4.4771,4.4815,4.4901,4.494,4.4994,4.5044,4.515,4.5217,4.5254,4.5315,4.5402,4.5476,4.5491,4.552,4.5534,4.555,4.5463,4.5453,4.5443,4.5422,4.5541,4.5541,4.5634,4.5635,4.5636]},{"header":{"parameterUnit":"m.s-1","parameterCategory":1,"la1":30.2991,"la2":30.254,"lo1":-89.0895,"lo2":-89.0444,"dy":0.0017,"dx":0.0017,"nx":28,"ny":28,"refTime":"2024-07-09T09:00:00:Z","depth":0,"parameterNumber":3,"parameterNumberName":"V-component_of_WINDS"},"data":[0,0,0,0,0,0,0,0,0,0,0,0,0,0,0,0,0,0,0,0,0,0,0,0,0,0,0,0,0,0,0,0,0,0,0,0,0,0,0,0,0,0,0,0,0,0,0,0,0,0,0,0,0,0,0,0,0,0,6.082,6.0821,0,6.0919,6.092,6.0922,6.0921,6.0919,6.0918,6.0917,6.101,6.1013,6.1017,0,0,0,0,0,0,0,0,0,0,0,0,0,6.062,6.0623,6.082,6.0821,6.0823,6.0919,6.0921,6.0922,6.0921,6.0919,6.0918,6.0916,6.1008,6.1013,6.1017,0,0,0,0,0,0,0,0,0,0,0,0,0,6.0711,6.0625,6.082,6.0834,6.0836,6.0919,6.0921,6.0922,6.0921,6.0919,6.0917,6.0915,6.1007,6.1012,6.1018,6.109,0,0,6.1034,6.1037,0,0,0,0,0,0,0,0,6.0706,6.0719,6.0831,6.0833,6.0836,6.0906,6.0884,6.0978,6.0922,6.0889,6.0917,6.0914,6.0976,6.0984,6.1006,6.1095,6.1099,6.1035,6.1038,6.1041,6.1042,0,0,0,0,0,0,0,6.07,6.0714,6.0859,6.0832,6.0835,6.0832,6.0843,6.0902,6.0941,6.0891,6.0891,6.0904,6.0977,6.1001,6.1009,6.11,6.1035,6.104,6.1043,6.1045,6.125,6.1252,0,0,0,0,0,0,6.0692,6.0709,6.0856,6.0862,6.0765,6.0837,6.0849,6.0885,6.0941,6.0948,6.0905,6.0903,6.0993,6.1002,6.1012,6.1099,6.1041,6.1046,6.1049,6.1248,6.1251,6.1253,0,0,0,0,0,0,6.0688,6.0705,6.0852,6.0786,6.0804,6.0843,6.0883,6.0888,6.0912,6.0952,6.0958,6.0923,6.0992,6.1004,6.1071,6.1103,6.1048,6.1053,6.1246,6.1249,6.1252,6.1276,0,0,0,0,0,0,6.0682,6.0704,6.0734,6.0787,6.0808,6.0912,6.0885,6.0891,6.0923,6.0921,6.097,6.0976,6.0991,6.1063,6.1076,6.1109,6.1058,6.1243,6.1247,6.1251,6.1272,6.1279,6.1285,0,0,0,0,0,6.0675,6.0735,6.0736,6.0753,6.0847,6.0914,6.0926,6.0944,6.0926,6.0955,6.098,6.0975,6.1097,6.107,6.1085,6.112,6.1241,6.1246,6.1251,6.1269,6.1278,6.1285,0,0,0,0,0,0,6.0682,6.0742,6.0743,6.0823,6.0864,6.0914,6.0952,6.0953,6.0997,6.0994,6.1011,6.1022,6.1089,6.1111,6.1079,6.1192,6.1166,6.1174,6.1175,6.1184,6.119,6.1183,6.1062,0,0,0,0,0,6.0694,6.0746,6.0795,6.086,6.0881,6.0913,6.0943,6.0953,6.0995,6.1011,6.1041,6.1079,6.1126,6.1156,6.1201,6.1276,6.1285,6.1307,6.1313,6.1319,6.1325,6.1364,6.1374,6.1269,6.1269,6.1269,0,0,6.0717,6.0756,6.0788,6.0863,6.0896,6.0946,6.0927,6.0982,6.1019,6.1018,6.1084,6.1107,6.115,6.1221,6.1253,6.1241,6.1356,6.1325,6.1329,6.1332,6.137,6.138,6.1388,6.1272,6.1272,6.1271,0,0,6.0785,6.0822,6.088,6.0913,6.0964,6.0985,6.0999,6.1049,6.1065,6.1131,6.1132,6.1174,6.1255,6.1285,6.1311,6.139,6.1386,6.1404,6.1438,6.1476,6.1484,6.1491,6.1518,6.1527,6.141,6.141,6.1411,0,6.0807,6.0887,6.0908,6.0964,6.0996,6.1,6.1057,6.1088,6.1149,6.1169,6.1156,6.1257,6.1286,6.1363,6.1383,6.1404,6.1418,6.1398,6.1482,6.1489,6.1496,6.1521,6.1531,6.1412,6.1412,6.1412,6.1412,0,6.091,6.0965,6.1005,6.1068,6.1104,6.116,6.1187,6.122,6.1227,6.1248,6.1314,6.135,6.1402,6.1421,6.1427,6.1498,6.1489,6.1478,6.1452,6.1508,6.1531,6.1541,6.1415,6.1414,6.1414,6.1413,0,0,6.0986,6.106,6.1074,6.1102,6.1158,6.1199,6.1254,6.1307,6.1335,6.1376,6.1421,6.1489,6.1479,6.1509,6.1518,6.1552,6.1609,6.1537,6.1538,6.1548,6.1687,6.1694,6.1705,6.1608,6.161,6.1611,6.1683,0,6.1059,6.116,6.118,6.1266,6.1316,6.132,6.1367,6.1405,6.1425,6.1468,6.1489,6.1537,6.1522,6.1539,6.1573,6.1596,6.1637,6.1591,6.1646,6.1648,6.1635,6.1718,6.1726,6.1792,6.1693,6.1694,6.1696,0,6.1158,6.1205,6.1297,6.1346,6.1367,6.141,6.1459,6.1501,6.1542,6.1555,6.1588,6.1594,6.1647,6.162,6.1692,6.166,6.1683,6.1698,6.1701,6.1706,6.1675,6.1724,6.1814,6.1823,6.1711,6.171,6.1708,0,6.1202,6.1288,6.1354,6.1378,6.1437,6.1466,6.1491,6.1531,6.1561,6.1604,6.1623,6.167,6.1695,6.173,6.1747,6.1726,6.1818,6.1792,6.1827,6.1827,6.1845,6.1844,6.1939,6.1863,6.1862,6.1862,6.1862,0,6.1282,6.1337,6.1375,6.1415,6.1477,6.1498,6.1557,6.1581,6.1616,6.1658,6.1664,6.1703,6.1724,6.1765,6.1778,6.1835,6.1847,6.1856,6.1859,6.1855,6.1854,6.187,6.1865,6.1865,6.1864,6.1864,6.1863,0,6.1341,6.1369,6.1441,6.1491,6.1505,6.1548,6.1589,6.1626,6.1647,6.17,6.1714,6.1745,6.1794,6.1815,6.1874,6.1883,6.1947,6.1947,6.1934,6.1935,6.1968,6.1964,6.2076,6.2091,6.2006,6.2007,6.2007,0,6.139,6.1433,6.1488,6.1518,6.1545,6.1594,6.1625,6.1647,6.1679,6.1729,6.1759,6.1809,6.185,6.1927,6.1953,6.1997,6.1997,6.2034,6.2004,6.1999,6.1996,6.1993,6.1997,6.2038,6.2039,6.204,6.2041,0,6.1472,6.1483,6.1531,6.1583,6.1621,6.1662,6.1702,6.1725,6.1752,6.1787,6.1839,6.1871,6.1932,6.198,6.2026,6.2048,6.2048,6.205,6.206,6.2056,6.2047,6.2051,6.1948,6.2047,6.2046,6.2046,6.2046,6.2045,6.1526,6.1564,6.1609,6.1661,6.1694,6.1731,6.1768,6.1794,6.1839,6.1892,6.1901,6.1955,6.1993,6.2056,6.208,6.212,6.2111,6.2126,6.213,6.2133,6.2134,6.2041,6.2129,6.2129,6.2128,6.2128,6.2128,0,6.1607,6.1637,6.1684,6.1741,6.1781,6.1781,6.1824,6.1857,6.1905,6.1942,6.1983,6.2041,6.2087,6.2117,6.2163,6.2189,6.219,6.2201,6.2198,6.2203,6.2141,6.2127,6.2199,6.2199,6.2199,6.2199,6.2199,6.2199,6.1654,6.1719,6.1735,6.1815,6.1842,6.1898,6.1923,6.1956,6.1985,6.2051,6.2091,6.2111,6.2144,6.2192,6.2234,6.2241,6.2257,6.2268,6.2274,6.2215,6.2208,6.22,6.2187,6.2271,6.2271,6.2333,6.2333,6.2334]}]]